Probability
0 0 0 0 0 0 0 0 1 2 3 3 5 9 12 13 15 19 26 31 35 37 34 30 27 27 25 25 25 27 30 33 34 35 35 30 23 19 18 17 16 15 14 15
0 0 0 0 0 0 0 0 0 1 2 1 3 7 11 13 14 18 24 30 34 37 35 30 27 25 24 22 21 22 25 29 32 33 32 29 23 18 15 14 13 12 12 13
0 0 0 0 0 0 0 0 1 1 1 0 1 4 9 12 13 16 22 27 31 34 32 28 25 26 25 22 18 17 19 23 28 30 28 24 21 16 12 11 10 10 11 12
0 0 0 0 0 0 0 1 2 2 1 0 0 2 8 12 13 16 19 23 27 30 30 27 26 29 28 24 19 17 17 20 25 27 23 19 17 14 11 10 10 11 11 11
0 0 0 0 1 1 1 1 2 2 1 0 0 2 7 12 14 16 19 22 26 30 32 31 30 33 31 25 20 18 17 18 21 22 20 17 15 13 11 11 11 12 11 10
0 0 0 0 1 1 1 1 1 1 0 0 0 1 5 10 13 17 22 26 30 34 38 36 33 34 31 24 19 17 16 15 17 17 16 15 14 13 11 11 11 11 10 9
0 0 0 0 1 1 0 0 0 0 0 0 0 0 3 7 12 19 25 30 35 41 45 41 34 32 29 22 19 17 15 14 14 14 14 14 13 12 11 10 10 10 11 10
0 0 0 0 0 0 0 0 0 0 0 0 0 1 3 8 13 19 23 29 36 42 44 41 35 30 26 21 19 16 15 14 13 12 13 13 13 12 11 10 9 10 11 9
0 0 0 0 0 0 0 0 0 0 0 0 1 2 4 9 14 17 20 25 32 35 35 33 31 27 23 19 17 14 14 13 12 10 10 10 11 11 10 10 10 11 9 7
1 0 0 0 0 0 0 0 0 0 0 0 0 2 5 9 12 15 19 24 29 30 28 26 24 22 19 16 14 12 12 11 9 7 7 7 8 9 10 10 11 10 8 5
1 0 0 0 0 0 0 0 0 0 0 0 0 2 7 11 12 13 19 25 28 27 24 22 19 16 15 12 10 9 8 6 4 3 3 5 5 5 6 8 9 8 6 4
1 0 0 0 0 0 0 0 0 0 0 0 0 2 8 11 10 12 19 25 26 24 21 18 15 11 9 8 6 5 4 4 3 2 2 2 2 2 2 3 4 4 3 3
0 0 0 0 0 0 0 0 0 0 0 0 0 2 5 7 8 12 18 21 22 21 17 13 10 6 5 5 4 3 3 3 3 3 1 0 0 0 0 0 1 1 1 2
0 0 0 0 0 0 0 0 0 0 0 0 0 1 3 4 7 11 15 18 18 16 12 9 6 4 5 5 4 3 3 3 3 2 1 0 0 0 0 0 0 0 0 1
1 1 0 0 0 0 0 0 0 0 0 0 0 2 3 5 7 9 13 15 14 11 9 6 4 4 4 3 3 2 2 2 2 1 0 0 0 0 0 0 0 0 0 0
2 2 1 0 0 0 0 0 0 0 0 0 1 4 6 7 8 9 10 12 12 9 7 5 3 2 2 2 1 1 1 1 1 0 0 0 0 0 0 0 0 0 0 0
3 3 2 0 0 0 0 0 0 0 0 1 3 6 8 9 10 10 9 10 10 9 6 3 1 1 1 1 0 0 1 1 0 0 0 0 0 0 0 0 0 0 0 0
1 2 1 0 0 0 1 2 1 1 1 3 4 6 7 8 9 10 10 10 11 9 5 2 0 0 0 0 0 0 1 1 0 0 0 0 0 0 0 0 0 0 0 0
0 0 0 0 0 0 1 2 2 2 2 3 4 4 4 5 7 10 12 12 11 8 5 1 0 0 0 0 0 0 0 0 0 0 0 0 0 0 0 0 0 0 0 0
0 0 0 0 0 0 1 1 1 1 1 2 2 3 3 3 5 9 12 11 9 6 3 1 0 0 0 0 0 0 0 0 0 0 0 0 0 0 0 0 0 0 0 0
0 0 0 0 0 0 0 0 0 1 2 1 1 2 4 5 6 9 11 9 7 5 2 1 0 0 0 0 0 0 0 0 0 0 0 0 0 0 0 0 0 0 0 0
0 0 0 0 0 0 0 1 2 3 4 3 2 2 4 6 8 8 8 7 5 3 1 0 0 1 1 1 1 1 1 1 0 0 0 0 0 0 0 0 0 0 0 0
0 0 0 0 0 0 1 2 2 3 4 3 2 2 3 5 7 7 5 4 3 2 1 1 1 2 2 2 2 2 2 2 1 0 1 1 0 0 0 0 0 0 0 0
0 0 0 0 0 0 0 1 1 2 3 2 1 2 3 4 5 4 2 2 2 2 1 1 2 2 2 1 1 2 3 3 2 1 1 2 1 0 0 0 0 0 0 0
0 0 0 1 1 1 1 0 0 1 2 2 2 3 3 3 3 2 1 0 1 2 1 1 1 1 1 0 0 1 1 2 2 1 1 2 1 1 0 0 0 0 0 0
0 0 1 2 2 2 2 1 1 1 1 1 2 3 3 3 3 1 0 0 1 2 1 0 0 0 0 0 0 0 0 1 2 1 1 2 2 2 1 0 0 0 0 0
Wind_Speed
12 12 10 11 12 10 8 9 10 9 10 10 9 12 13 13 12 11 12 13 13 12 11 10 9 9 8 7 6 5 5 4 3 2 2 2 2 2 2 2 3 3 3 4
11 13 12 10 9 9 9 7 8 7 7 7 7 10 13 14 14 13 13 13 13 13 12 10 9 9 8 7 6 5 5 4 3 2 1 1 2 1 1 2 3 3 3 3
12 9 8 8 8 9 10 9 9 6 6 7 7 9 11 13 12 11 11 12 13 14 13 11 9 8 8 7 5 5 4 4 3 2 2 2 1 1 2 2 2 2 3 3
10 5 6 8 9 10 9 8 5 5 6 7 9 7 8 10 11 11 11 12 13 13 14 12 11 9 8 7 6 5 5 4 3 2 2 1 2 2 1 1 2 1 2 2
7 7 8 9 8 8 7 5 6 8 9 9 8 7 7 9 11 10 9 11 12 13 13 12 11 9 9 8 7 6 5 4 4 3 2 2 2 1 1 1 2 1 1 2
7 7 7 8 7 6 6 5 8 8 7 10 7 6 5 6 8 8 7 8 10 12 12 11 10 10 9 8 7 6 5 5 4 3 3 3 2 2 2 2 1 0 1 2
7 8 7 7 7 6 5 5 5 5 5 7 6 6 3 4 8 10 11 11 10 12 12 11 11 11 9 8 7 6 6 5 4 3 3 2 2 2 2 1 1 1 2 2
6 7 8 9 9 6 7 7 5 6 6 6 4 4 1 3 5 10 10 11 12 12 11 10 9 9 9 8 7 6 6 5 4 3 3 2 2 2 2 2 2 3 2 2
5 5 6 7 7 8 8 8 7 7 9 6 4 3 4 8 9 8 10 11 11 11 10 10 9 9 8 7 6 6 5 4 4 4 4 3 3 2 2 2 3 2 2 2
6 6 6 6 7 8 9 6 4 5 7 7 5 3 2 4 7 8 9 10 11 11 10 10 9 9 7 7 6 6 5 4 4 4 2 3 3 3 3 3 3 3 3 3
5 5 6 6 7 7 7 8 6 6 6 7 5 1 3 5 6 8 8 10 10 11 11 10 9 8 7 7 6 5 5 4 3 4 4 4 4 4 3 3 3 3 3 3
3 4 6 7 7 6 7 9 7 6 7 7 5 1 4 6 7 7 8 10 10 10 10 10 9 8 7 6 5 5 5 4 3 4 4 4 3 3 3 3 3 3 3 3
3 3 5 5 5 6 8 7 7 7 6 6 5 3 7 8 8 7 9 10 10 11 10 9 9 7 7 6 5 5 4 4 3 4 4 3 2 2 3 2 2 3 3 3
3 4 5 6 7 6 8 8 8 6 5 4 2 3 5 8 8 8 9 10 11 11 10 9 8 7 6 6 5 5 4 3 3 3 3 2 2 2 2 2 2 3 3 3
2 6 7 8 10 9 7 7 6 5 4 4 1 3 4 6 8 9 10 10 11 10 10 9 8 7 7 6 5 5 4 4 3 3 3 3 1 2 2 2 3 3 3 4
2 5 7 8 7 6 5 5 5 3 3 3 1 4 5 7 8 9 9 10 10 10 10 9 8 8 7 6 6 5 4 4 3 2 2 2 2 2 2 2 3 3 3 4
3 4 6 6 5 5 4 2 3 3 2 3 1 4 6 6 7 8 8 10 9 9 9 9 8 7 7 6 6 5 4 4 3 2 2 2 2 2 2 3 3 3 3 3
4 4 5 5 5 5 1 2 1 1 2 3 6 6 5 5 7 7 7 9 9 9 9 9 8 8 7 6 6 5 4 4 3 3 2 2 2 3 3 3 3 3 2 2
4 4 5 4 4 2 1 1 1 0 2 5 5 6 6 5 7 7 7 8 9 10 10 9 8 8 7 7 6 5 4 4 3 3 2 2 2 2 2 3 2 2 1 1
4 4 6 4 4 2 1 2 1 2 2 5 4 4 5 4 4 6 8 9 11 11 10 9 8 8 7 6 6 5 4 4 3 3 2 2 2 1 2 2 1 1 1 1
5 5 6 5 3 1 2 2 2 2 3 4 4 4 3 3 5 9 11 11 11 11 11 9 8 7 7 6 6 5 4 3 3 3 2 2 1 1 2 1 0 1 1 1
2 3 3 3 2 0 3 2 3 4 4 4 5 5 7 10 11 11 11 11 11 11 11 9 8 7 6 6 6 5 4 3 3 2 2 2 1 1 2 1 1 1 1 2
1 1 1 2 3 3 5 7 6 4 4 4 5 6 8 9 10 11 11 10 11 10 9 8 8 8 6 6 6 5 4 4 3 3 2 2 1 1 1 1 2 2 2 2
3 2 2 4 4 3 5 6 5 5 5 5 6 6 6 9 11 10 10 9 9 9 8 7 8 7 6 6 5 5 4 4 3 3 2 2 2 2 1 1 2 1 1 2
1 2 2 4 4 4 5 5 6 6 6 6 6 6 7 10 10 10 9 9 8 8 7 7 7 7 7 6 5 5 4 4 3 3 2 2 2 2 1 1 1 1 2 1
0 0 1 2 4 3 5 6 7 7 6 7 7 7 8 9 10 10 9 8 7 8 7 7 7 7 7 7 6 5 5 4 3 2 2 2 2 2 3 3 2 1 2 3
Wind_Direction
213 226 227 217 220 237 236 223 211 201 188 197 185 166 172 179 175 176 172 162 156 146 142 136 133 128 121 112 104 98 93 88 92 99 103 99 86 75 74 86 68 40 19 6
223 229 234 226 222 242 245 231 230 209 187 192 193 179 179 180 185 184 179 164 157 147 139 139 138 131 124 120 115 108 101 94 87 90 100 115 112 104 95 70 65 39 25 8
232 228 215 226 218 224 247 230 223 199 188 202 203 211 198 185 185 183 180 166 162 155 148 145 148 135 131 126 119 111 101 91 83 83 90 97 112 108 88 90 85 43 31 19
238 237 229 228 224 224 234 240 226 213 222 224 216 227 220 190 185 187 180 168 167 158 153 154 152 144 138 130 122 109 104 93 83 81 80 91 96 89 78 66 80 50 51 31
226 216 224 230 233 232 246 244 231 227 234 248 233 239 216 191 192 193 180 174 166 160 153 150 147 141 133 125 119 110 101 94 81 70 68 54 60 71 77 77 86 76 88 52
249 218 226 233 237 233 241 250 253 251 252 250 246 255 243 195 193 184 167 168 164 152 144 142 139 134 129 125 119 113 103 96 85 73 68 67 63 65 61 53 72 37 86 48
237 226 218 233 238 234 236 244 256 265 259 264 270 257 246 196 178 167 164 165 156 141 133 134 138 137 130 124 116 109 110 101 93 83 69 61 47 76 70 18 45 24 48 50
252 239 215 219 233 221 222 236 245 261 261 265 265 253 213 117 122 129 141 142 136 132 131 131 127 125 127 121 113 107 104 99 94 91 77 56 39 46 55 27 17 28 27 33
263 246 228 226 236 239 233 234 249 263 264 264 247 220 119 110 100 109 124 124 125 130 131 131 125 118 117 115 111 109 105 101 91 82 83 71 59 52 46 31 28 32 21 16
279 285 261 254 248 242 253 254 254 258 276 272 239 214 168 133 129 128 131 132 131 129 131 127 123 120 117 115 111 112 111 107 98 92 79 79 65 52 46 51 43 31 18 11
253 273 277 263 255 269 263 257 265 272 271 280 278 338 134 161 144 140 136 131 132 134 132 127 124 122 121 120 122 127 119 110 95 85 71 64 54 44 33 40 34 23 10 356
251 280 276 275 287 284 273 272 269 274 279 285 288 108 124 133 121 132 130 127 127 130 130 130 129 130 128 128 129 127 120 111 101 96 86 70 54 44 34 32 20 9 5 1
321 281 279 288 290 277 272 276 285 287 290 290 296 130 130 120 118 128 133 134 133 131 132 132 134 135 135 136 132 125 123 116 109 106 103 92 69 51 42 34 16 12 11 6
313 285 268 258 269 280 285 286 295 302 300 310 317 145 146 133 131 129 130 138 136 137 138 138 135 137 141 139 134 128 123 116 112 108 105 88 61 50 41 32 23 19 16 11
266 263 258 250 262 258 270 287 291 299 304 309 235 171 162 138 137 137 139 141 140 143 144 145 142 142 141 134 129 124 118 109 105 105 102 95 76 60 55 40 34 29 19 19
227 276 275 267 259 269 278 286 294 304 302 285 152 110 116 127 132 138 143 147 148 148 146 144 143 142 138 134 130 125 119 121 127 116 106 104 85 71 62 50 46 41 28 21
242 266 282 273 271 272 271 310 295 302 325 319 16 107 121 126 134 142 149 152 151 149 146 146 146 141 138 137 132 131 135 137 129 110 96 93 92 85 56 47 46 37 29 28
270 279 273 273 281 271 35 4 0 337 14 42 93 105 106 113 122 132 145 149 149 149 146 143 142 137 136 135 134 133 135 135 133 124 109 96 93 84 71 58 45 31 25 23
225 267 276 270 269 249 223 335 352 14 88 82 102 110 116 121 127 125 133 137 140 141 138 138 142 143 141 141 141 141 139 138 133 117 103 83 68 71 71 67 47 30 10 355
193 232 261 269 279 250 128 47 37 169 135 86 97 117 134 162 163 131 126 126 125 129 132 136 143 143 139 141 142 143 142 140 129 115 101 102 101 78 74 81 44 23 343 340
209 220 246 266 260 87 44 332 282 255 100 78 87 100 115 95 94 121 126 123 126 130 134 140 143 140 139 142 142 146 149 142 130 127 116 113 115 138 124 111 55 295 319 348
234 250 238 252 244 131 3 338 48 75 90 86 92 96 99 102 111 121 126 128 133 136 140 142 139 135 140 148 151 154 148 136 131 129 123 116 138 237 117 130 216 238 251 251
196 37 24 43 74 85 52 74 93 108 102 96 101 106 115 123 128 128 129 133 137 139 140 143 143 142 149 156 159 154 148 143 138 139 136 145 160 138 121 198 230 236 240 259
160 146 146 125 127 123 101 99 103 102 108 110 112 119 129 130 131 132 135 138 140 142 144 148 148 150 153 155 153 149 145 143 140 146 154 176 178 192 195 238 249 254 307 337
87 165 167 143 141 134 113 106 113 117 118 116 119 125 126 127 131 132 135 140 143 146 151 155 155 153 154 154 151 151 149 147 145 158 182 193 200 202 199 222 315 355 48 47
317 129 194 138 138 131 128 120 120 122 122 123 124 121 123 130 134 136 139 143 147 154 156 158 159 158 157 158 157 158 157 157 163 179 200 208 204 201 209 198 183 193 211 192